QPF
0.00 0.00 0.00 0.00 0.00 0.00 0.00 0.00 0.00 0.00 0.00 0.00 0.00 0.00 0.00 0.00 0.00 0.00 0.00 0.00 0.00 0.00 0.00 0.00 0.00 0.00 0.00 0.00 0.00 0.00 0.00 0.00 0.00 0.00 0.00 0.00 0.00 0.00 0.00 0.00 0.00 0.00 0.00 0.00
0.00 0.00 0.00 0.00 0.00 0.00 0.00 0.00 0.00 0.00 0.00 0.00 0.00 0.00 0.00 0.00 0.00 0.00 0.00 0.00 0.00 0.00 0.00 0.00 0.00 0.00 0.00 0.00 0.00 0.00 0.00 0.00 0.00 0.00 0.00 0.00 0.00 0.00 0.00 0.00 0.00 0.00 0.00 0.00
0.00 0.00 0.00 0.00 0.00 0.00 0.00 0.00 0.00 0.00 0.00 0.00 0.00 0.00 0.00 0.00 0.00 0.00 0.00 0.00 0.00 0.00 0.00 0.00 0.00 0.00 0.00 0.00 0.00 0.00 0.00 0.00 0.00 0.00 0.00 0.00 0.00 0.00 0.00 0.00 0.00 0.00 0.00 0.00
0.00 0.00 0.00 0.00 0.00 0.00 0.00 0.00 0.00 0.00 0.00 0.00 0.00 0.00 0.00 0.00 0.00 0.00 0.00 0.00 0.00 0.00 0.00 0.00 0.00 0.00 0.00 0.00 0.00 0.00 0.00 0.00 0.00 0.00 0.00 0.00 0.00 0.00 0.00 0.00 0.00 0.00 0.00 0.00
0.00 0.00 0.00 0.00 0.00 0.00 0.00 0.00 0.00 0.00 0.00 0.00 0.00 0.00 0.00 0.00 0.00 0.00 0.00 0.00 0.00 0.00 0.00 0.00 0.00 0.00 0.00 0.00 0.00 0.00 0.00 0.00 0.00 0.00 0.00 0.00 0.00 0.00 0.00 0.00 0.00 0.01 0.01 0.00
0.00 0.00 0.00 0.00 0.00 0.00 0.00 0.00 0.00 0.00 0.00 0.00 0.00 0.00 0.00 0.00 0.00 0.00 0.00 0.00 0.00 0.00 0.00 0.00 0.00 0.00 0.00 0.00 0.00 0.00 0.00 0.00 0.00 0.00 0.00 0.00 0.00 0.00 0.00 0.00 0.00 0.03 0.02 0.00
0.00 0.00 0.00 0.00 0.00 0.00 0.00 0.00 0.00 0.00 0.00 0.00 0.00 0.00 0.00 0.00 0.00 0.00 0.00 0.00 0.00 0.00 0.00 0.00 0.00 0.00 0.00 0.00 0.00 0.00 0.00 0.00 0.00 0.00 0.00 0.00 0.00 0.00 0.00 0.00 0.00 0.01 0.01 0.03
0.00 0.00 0.00 0.00 0.00 0.00 0.00 0.00 0.00 0.00 0.00 0.00 0.00 0.00 0.00 0.00 0.00 0.00 0.00 0.00 0.00 0.00 0.00 0.00 0.00 0.00 0.00 0.00 0.00 0.00 0.00 0.00 0.00 0.00 0.00 0.00 0.00 0.00 0.00 0.00 0.00 0.01 0.01 0.01
0.00 0.00 0.00 0.00 0.00 0.00 0.00 0.00 0.00 0.00 0.00 0.00 0.00 0.00 0.00 0.00 0.00 0.00 0.00 0.00 0.00 0.00 0.00 0.00 0.00 0.00 0.00 0.00 0.00 0.00 0.00 0.00 0.00 0.00 0.00 0.00 0.00 0.00 0.00 0.00 0.01 0.01 0.01 0.01
0.00 0.00 0.00 0.00 0.00 0.00 0.00 0.00 0.00 0.00 0.00 0.00 0.00 0.00 0.00 0.00 0.00 0.00 0.00 0.00 0.00 0.00 0.00 0.00 0.00 0.00 0.00 0.00 0.00 0.00 0.00 0.00 0.00 0.00 0.00 0.00 0.00 0.00 0.00 0.00 0.00 0.00 0.00 0.00
0.00 0.00 0.00 0.00 0.00 0.00 0.00 0.00 0.00 0.00 0.00 0.00 0.00 0.00 0.00 0.00 0.00 0.00 0.00 0.00 0.00 0.00 0.00 0.00 0.00 0.00 0.00 0.00 0.00 0.00 0.00 0.00 0.00 0.00 0.00 0.00 0.00 0.00 0.00 0.00 0.00 0.00 0.00 0.00
0.00 0.00 0.00 0.00 0.00 0.00 0.00 0.00 0.00 0.00 0.00 0.00 0.00 0.00 0.00 0.00 0.00 0.00 0.00 0.00 0.00 0.00 0.00 0.00 0.00 0.00 0.00 0.00 0.00 0.00 0.00 0.00 0.00 0.00 0.00 0.00 0.00 0.00 0.00 0.00 0.00 0.00 0.00 0.00
0.00 0.00 0.00 0.00 0.00 0.00 0.00 0.00 0.00 0.00 0.00 0.00 0.00 0.00 0.00 0.00 0.00 0.00 0.00 0.00 0.00 0.00 0.00 0.00 0.00 0.00 0.00 0.00 0.00 0.00 0.00 0.00 0.00 0.00 0.00 0.00 0.00 0.00 0.00 0.00 0.00 0.00 0.00 0.00
0.00 0.00 0.00 0.00 0.00 0.00 0.00 0.00 0.00 0.00 0.00 0.00 0.00 0.00 0.00 0.00 0.00 0.00 0.00 0.00 0.00 0.00 0.00 0.00 0.00 0.00 0.00 0.00 0.00 0.00 0.00 0.00 0.00 0.00 0.00 0.00 0.00 0.00 0.00 0.00 0.00 0.00 0.00 0.00
0.00 0.00 0.00 0.00 0.00 0.00 0.00 0.00 0.00 0.00 0.00 0.00 0.00 0.00 0.00 0.00 0.00 0.00 0.00 0.00 0.00 0.00 0.00 0.00 0.00 0.00 0.00 0.00 0.00 0.00 0.00 0.00 0.00 0.00 0.00 0.00 0.00 0.00 0.00 0.00 0.00 0.00 0.00 0.00
0.00 0.00 0.00 0.00 0.00 0.00 0.00 0.00 0.00 0.00 0.00 0.00 0.00 0.00 0.00 0.00 0.00 0.00 0.00 0.00 0.00 0.00 0.00 0.00 0.00 0.00 0.00 0.00 0.00 0.00 0.00 0.00 0.00 0.00 0.00 0.00 0.00 0.00 0.00 0.00 0.00 0.00 0.00 0.00
0.00 0.00 0.00 0.00 0.00 0.00 0.00 0.00 0.00 0.00 0.00 0.00 0.00 0.00 0.00 0.00 0.00 0.00 0.00 0.00 0.00 0.00 0.00 0.00 0.00 0.00 0.00 0.00 0.00 0.00 0.00 0.00 0.00 0.00 0.00 0.00 0.00 0.00 0.00 0.00 0.00 0.00 0.00 0.00
0.00 0.00 0.00 0.00 0.00 0.00 0.00 0.00 0.00 0.00 0.00 0.00 0.00 0.00 0.00 0.00 0.00 0.00 0.00 0.00 0.00 0.00 0.00 0.00 0.00 0.00 0.00 0.00 0.00 0.00 0.00 0.00 0.00 0.00 0.00 0.00 0.00 0.00 0.00 0.00 0.00 0.00 0.00 0.00
0.00 0.00 0.00 0.00 0.00 0.00 0.00 0.00 0.00 0.00 0.00 0.00 0.00 0.00 0.00 0.00 0.00 0.00 0.00 0.00 0.00 0.00 0.00 0.00 0.00 0.00 0.00 0.00 0.00 0.00 0.00 0.00 0.00 0.00 0.00 0.00 0.00 0.00 0.00 0.00 0.00 0.00 0.00 0.00
0.00 0.01 0.01 0.00 0.01 0.01 0.00 0.00 0.00 0.00 0.00 0.00 0.00 0.00 0.00 0.00 0.00 0.00 0.00 0.00 0.00 0.00 0.00 0.00 0.00 0.00 0.00 0.00 0.00 0.00 0.00 0.00 0.00 0.00 0.00 0.00 0.00 0.00 0.00 0.00 0.00 0.00 0.00 0.00
0.02 0.02 0.04 0.01 0.01 0.00 0.00 0.00 0.00 0.01 0.00 0.00 0.00 0.00 0.00 0.00 0.00 0.00 0.00 0.00 0.00 0.00 0.00 0.00 0.00 0.00 0.00 0.00 0.00 0.00 0.00 0.00 0.00 0.00 0.00 0.00 0.00 0.00 0.00 0.00 0.00 0.00 0.00 0.00
0.01 0.01 0.02 0.02 0.03 0.01 0.00 0.00 0.00 0.00 0.00 0.00 0.00 0.00 0.00 0.00 0.00 0.00 0.00 0.00 0.00 0.00 0.00 0.00 0.00 0.00 0.00 0.00 0.00 0.00 0.00 0.00 0.00 0.00 0.00 0.00 0.00 0.00 0.00 0.00 0.00 0.00 0.00 0.00
0.02 0.00 0.01 0.00 0.00 0.00 0.00 0.00 0.00 0.00 0.00 0.00 0.00 0.00 0.00 0.00 0.00 0.00 0.00 0.00 0.00 0.00 0.00 0.00 0.00 0.00 0.00 0.00 0.00 0.00 0.00 0.00 0.00 0.00 0.00 0.00 0.00 0.00 0.00 0.00 0.00 0.00 0.00 0.00
0.01 0.00 0.01 0.01 0.00 0.00 0.00 0.00 0.00 0.00 0.00 0.00 0.00 0.00 0.00 0.00 0.00 0.00 0.00 0.00 0.00 0.00 0.00 0.00 0.00 0.00 0.00 0.00 0.00 0.00 0.00 0.00 0.00 0.00 0.00 0.00 0.00 0.00 0.00 0.00 0.00 0.00 0.00 0.00
0.00 0.00 0.00 0.00 0.00 0.00 0.00 0.00 0.00 0.00 0.00 0.00 0.00 0.00 0.00 0.00 0.00 0.00 0.00 0.00 0.00 0.00 0.00 0.00 0.00 0.00 0.00 0.00 0.00 0.00 0.00 0.00 0.00 0.00 0.00 0.00 0.00 0.00 0.00 0.00 0.00 0.00 0.00 0.00
0.00 0.00 0.01 0.00 0.00 0.00 0.00 0.00 0.00 0.00 0.00 0.00 0.00 0.00 0.00 0.00 0.00 0.00 0.00 0.00 0.00 0.00 0.00 0.00 0.00 0.00 0.00 0.00 0.00 0.00 0.00 0.00 0.00 0.00 0.00 0.00 0.00 0.00 0.00 0.00 0.00 0.00 0.00 0.00
MSLP
1007.74 1006.97 1005.22 1004.86 1004.46 1003.72 1002.74 1001.79 1001.22 1000.87 1000.98 1002.28 1002.23 1001.54 1001.01 1000.62 1000.42 1000.52 1000.81 1001.00 1000.71 1000.33 1000.39 1000.56 1000.72 1001.11 1001.95 1002.96 1003.66 1003.98 1004.40 1004.99 1006.25 1007.28 1007.74 1008.15 1008.45 1009.04 1009.89 1010.16 1010.44 1010.90 1011.96 1013.12
1006.75 1004.92 1004.90 1004.73 1004.17 1003.72 1003.40 1002.60 1002.15 1001.82 1001.63 1001.79 1001.64 1000.84 1000.44 999.92 999.55 999.77 999.93 999.96 999.91 999.59 999.50 999.68 1000.11 1000.85 1002.07 1002.95 1003.48 1003.93 1004.31 1004.73 1005.56 1006.45 1006.96 1007.40 1008.01 1008.50 1009.13 1009.56 1009.92 1010.45 1011.64 1012.62
1004.92 1003.99 1004.69 1004.37 1003.86 1003.56 1003.19 1002.82 1002.53 1002.21 1001.84 1002.00 1001.45 1000.08 999.34 998.56 998.33 998.79 998.96 999.08 999.14 998.70 998.57 998.93 999.63 1000.70 1001.94 1002.68 1003.42 1003.87 1004.16 1004.39 1005.01 1005.79 1006.54 1007.24 1008.04 1008.52 1008.87 1009.03 1009.64 1010.55 1011.37 1012.40
1004.15 1004.24 1003.44 1003.79 1003.22 1003.50 1002.82 1003.20 1003.25 1002.93 1002.66 1001.29 1000.63 998.96 998.07 996.93 997.44 998.34 998.33 998.03 997.89 997.88 998.25 998.84 999.51 1000.63 1002.03 1002.80 1003.72 1004.10 1003.93 1004.10 1004.40 1005.47 1005.86 1007.14 1007.87 1008.57 1008.96 1009.71 1010.25 1010.95 1011.44 1012.07
1001.83 1003.17 1003.09 1002.85 1002.57 1003.37 1002.83 1003.27 1003.02 1002.82 1002.63 1001.79 1000.52 999.48 997.20 996.51 996.34 996.83 996.99 997.26 997.28 997.34 997.80 998.49 999.57 1001.04 1002.43 1003.66 1004.26 1003.96 1004.15 1004.03 1004.36 1005.23 1006.27 1007.25 1008.01 1008.55 1009.00 1009.92 1010.51 1011.06 1011.55 1011.96
1002.65 1002.55 1002.54 1002.12 1002.86 1003.18 1003.47 1003.63 1003.84 1003.48 1002.62 1000.47 999.81 999.01 996.14 995.49 995.34 996.26 996.63 996.59 996.86 997.12 997.62 998.57 999.86 1001.86 1002.67 1004.17 1005.05 1004.93 1004.66 1004.86 1004.85 1005.34 1006.66 1007.28 1007.38 1007.44 1008.48 1009.60 1010.28 1011.02 1011.58 1012.03
1002.09 1001.41 1001.85 1002.67 1002.13 1002.73 1003.09 1003.56 1002.94 1002.30 1001.20 997.93 998.79 997.29 995.50 995.19 995.51 995.67 996.37 996.38 996.55 997.26 998.07 999.05 1000.45 1001.79 1002.74 1004.26 1005.02 1005.58 1005.66 1006.24 1006.47 1006.63 1006.85 1007.28 1007.27 1007.91 1008.59 1009.45 1010.16 1010.84 1011.56 1012.17
1000.52 1000.48 1000.41 1001.44 1001.53 1001.39 1001.76 1002.55 1001.31 1000.22 999.53 997.58 997.37 995.52 994.27 994.70 994.96 996.17 996.60 997.00 997.10 997.75 998.86 999.58 1000.33 1001.44 1002.87 1004.37 1005.48 1005.94 1006.09 1006.57 1007.21 1007.29 1007.15 1007.19 1007.65 1007.96 1008.57 1009.28 1010.08 1010.84 1011.37 1011.79
999.08 998.49 999.75 1000.43 1001.80 1001.33 1000.78 1001.56 999.94 1000.86 999.29 998.15 996.67 994.43 994.53 995.26 995.79 996.27 996.61 997.10 997.58 998.00 998.80 999.76 1000.45 1001.60 1003.36 1004.72 1005.56 1006.27 1006.54 1006.90 1007.45 1007.55 1007.73 1007.75 1008.01 1008.46 1008.89 1009.48 1010.15 1010.77 1011.46 1012.01
998.49 998.33 998.69 999.16 1001.03 1000.72 999.70 1000.73 1001.43 1000.53 999.69 998.41 996.11 994.77 993.60 993.98 995.14 995.81 996.44 996.86 997.29 998.04 998.55 999.54 1000.49 1001.71 1003.53 1005.10 1006.03 1006.59 1007.18 1007.23 1007.64 1007.98 1008.16 1008.32 1008.46 1008.83 1009.29 1009.80 1010.43 1011.09 1011.79 1012.11
998.63 998.39 997.55 998.42 998.43 998.96 999.78 999.59 999.92 999.89 999.63 997.71 995.85 994.51 994.05 993.67 993.79 995.05 995.70 996.35 996.99 997.51 998.41 999.26 1000.27 1001.57 1003.25 1005.61 1006.44 1006.69 1007.29 1007.69 1007.78 1008.04 1008.35 1008.66 1008.83 1009.21 1009.58 1010.07 1010.73 1011.15 1011.49 1012.00
997.49 998.08 997.36 996.68 997.97 999.41 999.15 999.18 998.67 998.54 997.66 998.09 997.53 994.74 994.70 995.04 994.99 995.14 995.50 996.03 996.54 997.42 998.29 999.15 1000.06 1001.51 1003.05 1004.88 1006.50 1006.72 1007.00 1007.78 1008.14 1008.29 1008.24 1008.66 1009.08 1009.30 1009.73 1010.13 1010.60 1011.07 1011.57 1011.87
997.61 997.90 997.39 997.35 998.31 998.62 997.68 997.17 997.80 998.47 998.46 997.85 996.72 994.04 995.30 994.46 995.15 995.48 995.84 996.48 997.21 997.85 998.32 998.93 999.93 1001.31 1002.76 1004.07 1005.78 1006.71 1006.77 1006.94 1007.56 1008.01 1008.28 1008.68 1008.93 1009.17 1009.63 1010.22 1010.65 1011.04 1011.47 1011.95
997.41 996.93 996.46 995.54 995.30 996.68 997.57 997.12 997.29 997.35 997.54 997.43 996.17 994.16 994.73 995.09 995.46 995.90 996.59 996.62 997.31 998.11 998.48 998.97 999.81 1001.13 1002.41 1003.61 1005.02 1005.88 1006.13 1006.65 1007.03 1007.72 1008.10 1008.54 1008.86 1009.26 1009.74 1010.40 1010.84 1011.37 1011.74 1012.01
996.93 996.77 997.28 997.07 996.56 996.89 996.84 996.84 996.57 996.22 996.24 996.20 994.93 994.17 994.00 993.94 994.62 995.45 995.98 996.54 997.05 997.62 998.42 999.05 999.77 1000.79 1002.13 1003.49 1004.77 1005.55 1006.33 1006.79 1006.97 1007.44 1008.10 1008.76 1009.27 1009.80 1010.32 1010.72 1011.12 1011.50 1011.91 1012.62
996.66 996.80 997.52 997.11 997.27 995.99 995.13 995.28 995.97 995.75 995.41 994.73 994.29 993.95 992.93 993.77 993.73 994.11 994.65 995.34 996.31 997.24 998.09 999.03 999.65 1000.62 1002.31 1003.90 1004.96 1006.05 1006.61 1007.02 1007.27 1007.55 1008.18 1008.92 1009.53 1010.05 1010.57 1010.95 1011.19 1011.41 1011.68 1012.12
996.02 996.59 997.51 997.01 996.82 996.48 995.12 993.89 993.38 993.95 994.39 994.23 993.61 992.37 993.04 993.11 993.34 993.79 994.59 995.36 996.20 996.85 997.61 998.77 999.66 1001.61 1003.21 1004.35 1005.33 1006.18 1006.42 1006.70 1007.15 1007.64 1008.30 1009.05 1009.59 1010.01 1010.45 1010.68 1011.13 1011.56 1011.86 1012.21
995.25 995.88 997.01 997.35 997.13 995.79 994.57 994.18 992.97 992.91 993.01 993.05 993.01 992.71 992.87 992.86 993.20 993.67 994.04 994.37 995.05 996.11 997.09 998.33 1000.21 1001.94 1003.62 1004.66 1005.26 1005.94 1006.58 1006.93 1007.48 1007.87 1008.31 1009.01 1009.69 1010.31 1010.73 1011.21 1011.43 1011.85 1012.22 1012.43
994.27 995.11 996.44 996.67 995.52 994.36 993.69 993.16 992.56 991.58 991.01 992.04 992.21 992.29 992.30 992.74 993.29 993.04 993.59 994.11 994.68 995.34 996.48 998.12 1000.29 1002.27 1003.49 1004.46 1005.30 1006.19 1006.85 1007.53 1008.11 1008.72 1009.19 1009.59 1010.14 1010.54 1011.15 1011.57 1011.74 1011.82 1011.98 1012.21
992.77 994.13 995.31 996.19 994.95 993.24 991.58 991.45 991.63 992.41 991.34 991.58 991.98 991.90 992.36 993.06 993.16 992.46 994.04 993.90 994.23 995.40 996.71 998.60 1000.41 1002.15 1003.43 1004.70 1005.63 1006.62 1007.34 1008.14 1008.83 1009.85 1010.31 1010.55 1011.12 1011.15 1010.96 1011.62 1011.73 1012.05 1012.49 1012.55
991.43 992.97 993.65 994.21 993.78 991.94 990.61 990.14 990.09 990.29 991.14 991.44 991.74 992.20 992.96 993.29 993.13 992.87 993.65 994.48 995.33 996.43 998.18 999.86 1001.41 1002.79 1004.00 1005.29 1006.08 1006.88 1007.79 1008.76 1009.66 1010.04 1010.87 1011.31 1011.58 1011.41 1011.27 1011.65 1011.86 1011.98 1012.27 1012.29
991.02 992.28 992.80 993.35 992.93 991.59 989.58 989.38 989.10 989.92 990.67 991.01 991.68 992.42 992.95 993.28 993.52 994.09 994.54 995.34 996.50 997.81 999.64 1000.94 1002.28 1004.06 1005.43 1005.90 1006.33 1007.04 1007.93 1009.08 1009.63 1009.98 1010.76 1011.21 1011.29 1011.66 1011.65 1011.59 1011.46 1011.69 1011.97 1012.14
990.70 990.78 990.98 991.18 990.51 989.96 989.93 989.79 989.67 990.46 990.81 991.16 991.59 992.37 992.98 993.39 994.25 995.12 995.58 996.38 997.71 998.87 1000.22 1001.47 1002.85 1004.26 1005.75 1006.42 1006.92 1007.40 1008.25 1009.11 1009.49 1009.73 1010.10 1010.40 1010.68 1011.06 1011.24 1011.36 1011.53 1011.70 1011.82 1011.77
989.56 990.52 990.77 991.56 990.96 989.63 989.90 990.09 990.23 990.50 991.16 991.40 991.65 992.56 993.30 993.88 994.92 995.70 996.21 997.06 998.25 999.49 1000.81 1001.88 1003.49 1004.69 1005.58 1006.39 1007.00 1007.40 1008.04 1008.76 1009.15 1009.48 1009.93 1010.25 1010.64 1010.85 1010.97 1011.20 1011.37 1011.52 1011.68 1011.65
988.67 989.61 990.30 990.75 990.72 989.89 989.93 990.18 990.42 991.16 991.16 991.51 992.42 993.09 993.32 994.26 995.26 996.11 996.75 997.64 998.68 999.90 1001.43 1002.87 1004.14 1004.80 1005.65 1006.31 1006.89 1007.36 1007.91 1008.42 1008.87 1009.25 1009.70 1010.29 1010.56 1010.79 1010.90 1010.95 1010.95 1010.98 1011.02 1011.32
989.07 989.46 989.87 989.59 989.93 989.93 990.01 990.63 991.07 991.39 991.87 992.70 993.14 993.64 994.01 994.59 995.23 996.07 997.00 998.16 999.29 1000.45 1001.76 1003.25 1004.03 1004.90 1005.64 1006.20 1006.98 1007.39 1007.55 1008.28 1008.66 1009.14 1009.62 1010.11 1010.40 1010.65 1010.78 1010.79 1010.67 1010.75 1011.01 1011.15
Thickness
5701 5695 5707 5727 5736 5747 5755 5757 5759 5776 5785 5758 5761 5769 5784 5801 5808 5806 5807 5805 5810 5817 5823 5827 5829 5829 5822 5815 5806 5802 5795 5791 5781 5768 5761 5758 5755 5752 5746 5746 5743 5741 5733 5725
5689 5693 5722 5729 5734 5735 5736 5737 5743 5760 5772 5760 5763 5766 5785 5797 5806 5809 5810 5809 5812 5818 5823 5824 5825 5821 5811 5805 5800 5795 5792 5788 5782 5772 5766 5761 5756 5752 5747 5746 5745 5739 5731 5725
5686 5713 5719 5715 5721 5721 5729 5728 5737 5739 5756 5755 5757 5759 5780 5802 5811 5814 5816 5817 5817 5821 5822 5822 5818 5812 5804 5799 5795 5791 5787 5785 5780 5773 5765 5759 5750 5747 5743 5745 5740 5733 5728 5720
5688 5709 5712 5706 5711 5720 5713 5735 5730 5729 5725 5720 5759 5732 5775 5804 5800 5800 5806 5815 5821 5824 5824 5820 5814 5805 5795 5791 5788 5784 5784 5781 5779 5769 5763 5749 5741 5733 5735 5732 5729 5725 5722 5718
5696 5693 5696 5697 5714 5716 5716 5729 5728 5728 5721 5724 5736 5727 5774 5801 5792 5800 5811 5814 5820 5825 5823 5817 5810 5798 5788 5779 5774 5780 5777 5776 5772 5765 5755 5744 5736 5733 5731 5724 5720 5718 5716 5713
5684 5706 5700 5711 5713 5713 5722 5709 5708 5712 5716 5701 5731 5732 5767 5786 5794 5798 5808 5815 5818 5820 5820 5815 5805 5788 5781 5768 5759 5762 5764 5762 5761 5757 5745 5738 5738 5738 5728 5718 5714 5710 5707 5705
5673 5682 5695 5697 5696 5706 5702 5685 5678 5680 5689 5714 5746 5744 5767 5791 5794 5803 5799 5808 5814 5812 5808 5802 5791 5779 5773 5759 5750 5746 5746 5738 5738 5737 5736 5732 5733 5727 5721 5714 5709 5705 5700 5696
5657 5650 5684 5695 5692 5694 5696 5686 5687 5670 5690 5725 5754 5735 5770 5794 5802 5796 5797 5795 5799 5797 5792 5789 5786 5779 5767 5751 5739 5733 5732 5727 5721 5721 5724 5725 5721 5719 5715 5709 5703 5697 5693 5692
5664 5671 5698 5691 5689 5697 5691 5675 5729 5697 5721 5704 5729 5771 5778 5778 5776 5778 5781 5782 5780 5783 5782 5777 5775 5768 5756 5743 5732 5724 5720 5716 5711 5709 5709 5709 5709 5706 5703 5699 5694 5689 5684 5680
5678 5667 5692 5689 5674 5688 5693 5704 5667 5688 5660 5665 5717 5739 5753 5769 5760 5768 5768 5769 5774 5773 5774 5769 5762 5756 5744 5730 5720 5714 5706 5705 5701 5696 5696 5695 5695 5693 5690 5687 5681 5677 5672 5670
5672 5668 5679 5684 5664 5673 5675 5678 5682 5693 5688 5684 5699 5725 5776 5773 5772 5759 5768 5768 5766 5767 5763 5758 5754 5747 5734 5714 5706 5703 5695 5691 5691 5687 5684 5681 5680 5679 5679 5676 5671 5668 5666 5661
5668 5656 5654 5667 5685 5671 5679 5678 5689 5672 5686 5689 5691 5711 5763 5755 5757 5759 5762 5763 5763 5760 5753 5749 5746 5735 5723 5710 5694 5692 5689 5680 5677 5674 5675 5672 5670 5669 5666 5664 5661 5658 5653 5650
5651 5627 5627 5642 5646 5652 5664 5691 5690 5683 5688 5671 5675 5711 5754 5757 5745 5748 5748 5748 5742 5741 5739 5740 5735 5724 5713 5705 5691 5681 5681 5679 5673 5669 5666 5663 5661 5660 5656 5652 5649 5646 5642 5637
5635 5631 5627 5634 5657 5671 5651 5674 5680 5682 5657 5670 5687 5723 5734 5729 5728 5731 5732 5730 5726 5723 5728 5727 5723 5713 5705 5697 5687 5678 5677 5672 5668 5662 5658 5654 5652 5649 5646 5641 5637 5631 5628 5624
5616 5606 5620 5638 5659 5661 5652 5657 5668 5669 5676 5662 5696 5707 5728 5737 5725 5723 5722 5720 5716 5718 5715 5715 5710 5705 5696 5685 5675 5667 5662 5658 5658 5653 5646 5641 5637 5634 5630 5626 5622 5617 5613 5605
5613 5596 5615 5617 5635 5661 5659 5658 5655 5661 5671 5685 5693 5693 5742 5737 5740 5727 5721 5715 5710 5710 5708 5703 5703 5698 5680 5667 5658 5650 5646 5644 5643 5641 5637 5631 5625 5620 5614 5610 5609 5605 5599 5595
5601 5600 5590 5587 5628 5628 5610 5655 5669 5665 5673 5679 5671 5711 5730 5721 5720 5717 5709 5706 5702 5701 5698 5693 5691 5674 5660 5651 5643 5635 5636 5636 5632 5629 5624 5616 5611 5606 5601 5598 5593 5586 5582 5578
5594 5598 5594 5584 5605 5566 5618 5654 5674 5668 5670 5687 5686 5700 5710 5711 5714 5710 5712 5709 5705 5699 5695 5686 5672 5656 5643 5636 5631 5626 5622 5621 5616 5613 5610 5603 5596 5590 5585 5578 5574 5569 5565 5560
5600 5598 5568 5569 5591 5610 5625 5645 5653 5664 5671 5679 5679 5693 5702 5702 5694 5693 5711 5711 5699 5694 5685 5675 5658 5640 5631 5623 5617 5610 5606 5601 5597 5592 5587 5582 5576 5571 5564 5558 5556 5554 5549 5544
5605 5598 5577 5562 5572 5573 5632 5663 5672 5658 5622 5673 5675 5681 5681 5680 5652 5685 5691 5695 5692 5683 5671 5655 5641 5628 5619 5608 5600 5591 5586 5581 5577 5566 5561 5557 5551 5551 5546 5543 5541 5535 5528 5524
5577 5577 5566 5574 5570 5601 5647 5675 5672 5615 5627 5670 5670 5666 5659 5650 5664 5682 5676 5670 5666 5658 5644 5631 5619 5608 5599 5589 5583 5576 5567 5560 5550 5546 5539 5534 5530 5532 5531 5526 5522 5518 5511 5507
5570 5561 5560 5573 5563 5570 5661 5665 5636 5641 5650 5657 5656 5649 5645 5649 5653 5651 5650 5645 5637 5627 5613 5604 5595 5581 5572 5570 5568 5560 5552 5542 5536 5534 5528 5524 5521 5515 5513 5510 5508 5502 5496 5490
5560 5576 5581 5587 5593 5634 5640 5637 5638 5630 5635 5639 5641 5639 5633 5632 5631 5626 5624 5620 5611 5603 5596 5588 5579 5567 5554 5549 5545 5541 5534 5527 5524 5522 5519 5515 5509 5503 5499 5493 5487 5482 5477 5474
5581 5583 5575 5573 5592 5620 5619 5619 5621 5620 5620 5627 5627 5623 5618 5614 5604 5602 5604 5600 5593 5586 5577 5572 5559 5546 5538 5533 5530 5527 5522 5516 5512 5508 5503 5498 5492 5487 5483 5476 5470 5464 5456 5453
5585 5581 5574 5573 5586 5603 5605 5606 5606 5601 5607 5608 5606 5604 5605 5600 5591 5588 5586 5581 5576 5569 5559 5548 5536 5530 5525 5522 5517 5513 5508 5503 5498 5493 5487 5479 5473 5468 5463 5458 5454 5449 5443 5435
5576 5572 5566 5576 5588 5584 5591 5589 5587 5587 5585 5582 5582 5581 5584 5584 5580 5576 5572 5565 5557 5550 5542 5528 5521 5516 5510 5507 5501 5498 5494 5486 5483 5477 5470 5463 5457 5450 5444 5440 5436 5429 5420 5412